レモン-パンスターズ彗星

437P/Lemmon-PanSTARRS (2012)

English version
Home page
Updated on June 19, 2022

---------------------------------------------------------------------

・ プロフィール

符号 437P/2011 UE215

・ 軌道要素

Epoch 2012 Nov. 9.0 TT = JDT 2456240.5                                          
T 2012 Nov. 27.71310 TT                                 Rudenko                 
q   3.4047660            (2000.0)            P               Q                  
n   0.10073118     Peri.  206.85683     -0.04756439     -0.99713822             
a   4.5746736      Node   245.91850     +0.92762154     -0.02227559             
e   0.2557358      Incl.    3.69035     +0.37048064     -0.07224386             
P   9.78                                                                        
From 60 observations 2011 Oct. 24-2021 Nov. 8, mean residual 0".4.              

・ 光度変化

        m1 = 12.0 + 5 logΔ + 10.0 log r

---------------------------------------------------------------------

軌道要素はM.P.E.C. 2021-V173に掲載されたものです。
光度グラフはComet for Windowsで作成したものです。

---------------------------------------------------------------------

Copyright(C) Seiichi Yoshida (comet@aerith.net). All rights reserved.